Back to catalog

THORAD AGENA D DEB

AliveSSO
NORAD 42524·DEBRIS·🇺🇸 United States

Launched Apr 8, 1970 from Vandenberg Space Force Base

Loading…

Next Passes (next 24 hours)

TLE

FreshSource: Space-Track

Epoch: Sep 13, 2026, 11:15 UTC

1 42524U 70025SE  26256.46927503  .00000507  00000-0  61128-3 0  9991
2 42524  99.7925 321.8972 0029006 327.1643  46.9428 13.71653981234540

Track THORAD AGENA D DEB in real time with AllMySat

Download on the App Store